This demonstration page uses our WeatherBlox Daily Observations layout. Learn more.

Left ArrowRight Arrow

40.92945, -100.16068

Hourly Observations for April 20, 2015

Temp ( °F °C ) Dew Point ( °F °C ) Humidity (%) Winds ( mph kmh ) Pressure ( in mb ) Visibility ( mi km ) Precip ( " mm )
12:15 am 00:15 Clear 38 3.4 32 -0.2 78 78 NW 10 17 30.03 1017 10 16 N/A
12:35 am 00:35 Clear 37 2.9 32 -0.1 81 81 NW 9 15 30.03 1017 10 16 N/A
12:55 am 00:55 Clear 37 2.5 32 -0.2 83 83 WNW 8 13 30.03 1017 10 16 N/A
1:15 am 01:15 Clear 37 2.8 32 -0.2 81 81 WNW 9 15 30.03 1017 10 16 N/A
1:35 am 01:35 Clear 36 2.4 32 -0.1 84 84 WNW 9 15 30.03 1017 10 16 N/A
1:55 am 01:55 Clear 37 2.5 32 undefined 84 84 WNW 10 17 30.03 1017 10 16 N/A
2:15 am 02:15 Clear 36 2.2 32 -0.2 84 84 WNW 10 17 30.03 1017 10 16 N/A
2:35 am 02:35 Clear 36 2.2 32 -0.2 84 84 WNW 10 17 30.03 1017 10 16 N/A
2:55 am 02:55 Clear 36 2.2 31 -0.5 83 83 WNW 9 15 30.03 1017 10 16 N/A
3:15 am 03:15 Clear 35 1.7 31 -0.5 86 86 WNW 10 17 30.03 1017 10 16 N/A
3:35 am 03:35 Clear 35 1.7 31 -0.5 86 86 WNW 10 17 30.03 1017 10 16 N/A
3:55 am 03:55 Clear 35 1.6 31 -0.5 86 86 WNW 9 15 30.03 1017 10 16 N/A
4:15 am 04:15 Clear 35 1.7 31 -0.5 86 86 WNW 10 17 30.03 1017 10 16 N/A
4:35 am 04:35 Clear 35 1.7 31 -0.7 84 84 WNW 10 17 30.03 1017 10 16 N/A
4:55 am 04:55 Clear 35 1.4 31 -0.7 86 86 WNW 12 19 30.03 1017 10 16 N/A
5:15 am 05:15 Clear 34 1.2 31 -0.8 87 87 WNW 10 17 30.03 1017 10 16 N/A
5:35 am 05:35 Clear 34 1.1 30 -1 86 86 WNW 10 17 30.03 1017 10 16 N/A
5:55 am 05:55 Clear 34 0.9 30 -1 87 87 WNW 10 17 30.03 1017 10 16 N/A
6:15 am 06:15 Clear 34 1 30 -1 87 87 WNW 9 15 30.03 1017 10 16 N/A
6:35 am 06:35 Clear 33 0.7 30 -1 89 89 WNW 9 15 30.03 1017 10 16 N/A
6:55 am 06:55 Sunny 33 0.5 30 -1.2 89 89 WNW 7 11 30.06 1018 10 16 N/A
7:15 am 07:15 Sunny 34 1 30 -0.9 87 87 WNW 9 15 30.06 1018 10 16 N/A
7:35 am 07:35 Sunny 34 1.3 31 -0.5 88 88 WNW 10 17 30.06 1018 10 16 N/A
7:55 am 07:55 Sunny 35 1.8 32 -0.1 87 87 WNW 12 19 30.06 1018 10 16 N/A
8:15 am 08:15 Sunny 37 2.7 32 undefined 83 83 WNW 12 19 30.06 1018 10 16 N/A
8:35 am 08:35 Sunny 38 3.4 32 undefined 79 79 WNW 14 22 30.06 1018 10 16 N/A
8:55 am 08:55 Sunny 39 4.1 32 -0.1 74 74 WNW 16 26 30.03 1017 10 16 N/A
9:15 am 09:15 Sunny 40 4.7 32 0.1 72 72 WNW 15 24 30.03 1017 10 16 N/A
9:35 am 09:35 Sunny 42 5.5 32 0.1 69 69 NW 13 20 30.03 1017 10 16 N/A
9:55 am 09:55 Sunny 44 6.4 33 0.6 67 67 WNW 14 22 30.03 1017 10 16 N/A
10:15 am 10:15 Sunny 45 7.4 33 0.8 63 63 WNW 18 30 30.00 1016 10 16 N/A
10:35 am 10:35 Sunny 47 8.4 34 1 60 60 WNW 16 26 30.00 1016 10 16 N/A
10:55 am 10:55 Sunny 49 9.5 31 -0.4 50 50 WNW 15 24 29.94 1014 10 16 N/A
11:15 am 11:15 Partly Cloudy 51 10.3 29 -1.9 43 43 WNW 15 24 29.94 1014 10 16 N/A
11:35 am 11:35 Partly Cloudy 52 10.9 28 -2.1 41 41 NW 22 35 29.94 1014 10 16 N/A
11:55 am 11:55 Partly Cloudy 52 11.1 26 -3.5 36 36 NW 23 37 29.94 1014 10 16 N/A
12:15 pm 12:15 Partly Cloudy 53 11.5 24 -4.2 33 33 NW 25 41 29.94 1014 10 16 N/A
12:35 pm 12:35 Mostly Cloudy 53 11.4 25 -3.7 35 35 NW 23 37 29.91 1013 10 16 N/A
12:55 pm 12:55 Mostly Cloudy 54 12 25 -4 33 33 WNW 22 35 29.91 1013 10 16 N/A
1:15 pm 13:15 Mostly Cloudy 53 11.6 24 -4.2 33 33 NW 28 44 29.91 1013 10 16 N/A
1:35 pm 13:35 Mostly Cloudy 54 12.3 26 -3.3 34 34 NW 25 41 29.91 1013 10 16 N/A
1:55 pm 13:55 Mostly Cloudy 55 12.7 26 -3.5 32 32 NNW 21 33 29.88 1012 10 16 N/A
2:15 pm 14:15 Mostly Cloudy 54 12.4 25 -3.9 32 32 NW 23 37 29.85 1011 10 16 N/A
2:35 pm 14:35 Mostly Cloudy 55 12.8 26 -3.2 33 33 WNW 21 33 29.85 1011 10 16 N/A
2:55 pm 14:55 Mostly Cloudy 56 13.2 25 -3.7 31 31 NW 23 37 29.85 1011 10 16 N/A
3:15 pm 15:15 Partly Cloudy 56 13.6 25 -3.9 30 30 WNW 20 31 29.85 1011 10 16 N/A
3:35 pm 15:35 Partly Cloudy 56 13.6 25 -3.7 30 30 WNW 18 30 29.85 1011 10 16 N/A
3:55 pm 15:55 Mostly Cloudy 57 14.1 26 -3.1 30 30 WNW 24 39 29.85 1011 10 16 N/A
4:15 pm 16:15 Mostly Cloudy 57 13.8 26 -3.5 30 30 NW 20 31 29.83 1010 10 16 N/A
4:35 pm 16:35 Partly Cloudy 57 13.8 26 -3.3 31 31 NW 23 37 29.83 1010 10 16 N/A
4:55 pm 16:55 Partly Cloudy 55 12.9 24 -4.3 30 30 WNW 15 24 29.83 1010 10 16 N/A
5:15 pm 17:15 Partly Cloudy 57 14 26 -3.5 30 30 WNW 18 30 29.83 1010 10 16 N/A
5:35 pm 17:35 Partly Cloudy 56 13.4 25 -3.9 30 30 NW 14 22 29.83 1010 10 16 N/A
5:55 pm 17:55 Partly Cloudy 55 13 26 -3.5 32 32 NW 17 28 29.83 1010 10 16 N/A
6:15 pm 18:15 Partly Cloudy 57 13.9 25 -3.9 29 29 WNW 18 30 29.83 1010 10 16 N/A
6:35 pm 18:35 Partly Cloudy 56 13.1 26 -3.3 32 32 NW 16 26 29.83 1010 10 16 N/A
6:55 pm 18:55 Mostly Cloudy 55 12.6 25 -3.7 32 32 NNW 16 26 29.80 1009 10 16 N/A
7:15 pm 19:15 Mostly Cloudy 54 12.2 28 -2.2 37 37 NNW 9 15 29.80 1009 10 16 N/A
7:35 pm 19:35 Partly Cloudy 53 11.9 28 -2.3 37 37 NW 9 15 29.80 1009 10 16 N/A
7:55 pm 19:55 Sunny 51 10.5 30 -1 45 45 NNW 8 13 29.83 1010 10 16 N/A
8:15 pm 20:15 Sunny 48 8.7 32 0.2 56 56 NNW 5 7 29.83 1010 10 16 N/A
8:35 pm 20:35 Clear 47 8.1 32 undefined 57 57 NNW 3 6 29.85 1011 10 16 N/A
8:55 pm 20:55 Clear 46 7.5 32 -0.2 58 58 WNW 3 6 29.88 1012 10 16 N/A
9:15 pm 21:15 Clear 44 6.7 32 undefined 63 63 W 3 6 29.88 1012 10 16 N/A
9:35 pm 21:35 Clear 42 5.5 32 undefined 68 68 N N/A 29.88 1012 10 16 N/A
9:55 pm 21:55 Clear 41 5.1 32 undefined 70 70 N N/A 29.94 1014 10 16 N/A
10:15 pm 22:15 Clear 41 4.8 33 0.5 74 74 WNW 3 6 29.94 1014 10 16 N/A
10:35 pm 22:35 Clear 40 4.2 34 0.9 79 79 N N/A 29.94 1014 10 16 N/A
10:55 pm 22:55 Clear 38 3.1 32 -0.1 80 80 NNW 3 6 29.94 1014 10 16 N/A
11:15 pm 23:15 Clear 38 3.4 33 0.5 82 82 N N/A 29.94 1014 10 16 N/A
11:35 pm 23:35 Clear 37 3 32 undefined 81 81 W 3 6 29.94 1014 10 16 N/A
11:55 pm 23:55 Clear 35 1.7 31 -0.7 84 84 N N/A 29.97 1015 10 16 N/A

Powered by AerisWeather